[Iaude] MPEC L116: 2024 LC3 [a=1.35,e=0.30,i=4.3,H=22.7]
    mpec at cfa.harvard.edu 
    mpec at cfa.harvard.edu
       
    Tue Jun 11 07:27:46 EDT 2024
    
    
  
M.P.E.C. 2024-L116                                Issued 2024 June 11, 11:26 UT
     The Minor Planet Electronic Circulars contain information on unusual
         minor planets, routine data on comets and natural satellites,
         and occasional editorial announcements.  They are published
    on behalf of Division F of the International Astronomical Union by the
          Minor Planet Center, Smithsonian Astrophysical Observatory,
                          Cambridge, MA 02138, U.S.A.
			  
             Prepared using the Tamkin Foundation Computer Network
                              MPC at CFA.HARVARD.EDU
            URL https://www.minorplanetcenter.net/    ISSN 1523-6714
                                    2024 LC3                                    
Observations:
     K24L03C* C2024 06 09.54899820 34 41.805-13 42 22.69         21.32wXEL116F51
     K24L03C  C2024 06 09.56159820 34 44.766-13 41 50.28         20.80wXEL116F51
     K24L03C  C2024 06 09.58683020 34 50.746-13 40 44.76         21.33wXEL116F51
     K24L03C KC2024 06 10.31030220 37 57.32 -13 09 07.0          20.7 GVEL116H21
     K24L03C KC2024 06 10.31321020 37 58.03 -13 08 59.4                VEL116H21
     K24L03C KC2024 06 10.31607220 37 58.75 -13 08 52.1          21.2 GVEL116H21
     K24L03C KC2024 06 10.32545820 38 01.03 -13 08 26.9          21.9 GVEL116H21
     K24L03C KC2024 06 11.34412320 42 28.65 -12 21 39.8          20.8 GVEL116H21
     K24L03C KC2024 06 11.34839020 42 29.72 -12 21 28.0          20.8 GVEL116H21
     K24L03C KC2024 06 11.35408120 42 31.15 -12 21 11.7          20.5 GVEL116H21
     K24L03C KC2024 06 11.35759020 42 32.07 -12 21 02.2          20.4 GVEL116H21
     K24L03C KC2024 06 11.45097520 42 56.580-12 16 33.80         21.58GVEL116I52
     K24L03C KC2024 06 11.45425920 42 57.400-12 16 24.60         21.00GVEL116I52
     K24L03C KC2024 06 11.45755020 42 58.240-12 16 15.20         21.10GVEL116I52
     K24L03C KC2024 06 11.46381320 42 59.800-12 15 57.20         21.14GVEL116I52
Observer details:
F51 Pan-STARRS 1, Haleakala.  Observers J. Herman, T. Lowe, P. Minguez, A.
    Schultz, I. Smith.  Measurers K. Chambers, T. de Boer, J. Fairlamb, H.
    Gao, M. Huber, C.-C. Lin, E. Magnier, Y. Ramanjooloo, R. Wainscoat, R.
    Weryk.  1.8-m Ritchey-Chretien + CCD.
H21 Astronomical Research Observatory, Westfield.  Observer R. Holmes.
    Measurers T. Linder, R. Holmes, L. Horn.  0.81-m f/4.0 astrograph + CCD.
I52 Steward Observatory, Mt. Lemmon Station.  Observer J. B. Fazekas.
    Measurers T. Beuden, V. F. Carvajal, D. Fay, J. B. Fazekas, D. C. Fuls, A.
    R. Gibbs, A. D. Grauer, H. Groeller, J. K. Hogan, R. A. Kowalski, S. M.
    Larson, G. J. Leonard, D. Rankin, R. L. Seaman, F. C. Shelly, K. W.
    Wierzchos.  1.0-m prime focus + CCD.
Orbital elements:
2024 LC3                                                 Earth MOID = 0.0513 AU
Epoch 2024 Mar. 31.0 TT = JDT 2460400.5                 MPC                     
M 267.88496              (2000.0)            P               Q                  
n   0.62953872     Peri.   92.03685     +0.97149017     +0.22570470             
a   1.3483038      Node   254.92453     -0.23618734     +0.89486612             
e   0.3045555      Incl.    4.30933     -0.02055220     +0.38506106             
P   1.57           H   22.79          G   0.15           U   9                  
Residuals in seconds of arc
240609 F51  0.1+  0.1-    240610 H21  0.0   0.3-    240611 H21  0.3+  0.1-
240609 F51  0.1-  0.2-    240610 H21  0.4-  0.1-    240611 I52  0.0   0.0
240609 F51  0.0   0.0     240611 H21  0.1+  0.2+    240611 I52  0.1-  0.2-
240610 H21  0.2-  0.2+    240611 H21  0.0   0.0     240611 I52  0.1+  0.1-
240610 H21  0.2-  0.1+    240611 H21  0.2-  0.2+    240611 I52  0.2-  0.0
Ephemeris:
2024 LC3                 a,e,i = 1.35, 0.30, 4                   q = 0.9377
Date    TT    R. A. (2000) Decl.     Delta      r    Elong.  Phase     V
2024 05 12    19 04 11.0 -24 44 51   0.4100  1.2982   126.9    38.5    23.0
...
2024 05 27    19 46 03.2 -20 46 56   0.2949  1.2276   131.2    38.4    22.1
...
2024 06 04    20 12 55.3 -17 10 41   0.2421  1.1898   131.9    39.4    21.7
...
2024 06 10    20 36 36.1 -13 22 23   0.2070  1.1616   131.0    41.3    21.3
2024 06 11    20 40 56.5 -12 37 13   0.2015  1.1570   130.7    41.7    21.3
2024 06 12    20 45 24.6 -11 49 43   0.1962  1.1523   130.4    42.2    21.2
...
2024 06 18    21 15 24.9 -06 09 31   0.1675  1.1248   127.0    46.2    20.9
...
2024 06 26    22 06 19.1 +04 14 47   0.1388  1.0892   118.3    55.2    20.7
...
2024 07 11    00 22 15.9 +28 03 57   0.1260  1.0285    91.9    81.1    21.2
A. U. Tomatic                (C) Copyright 2024 MPC           M.P.E.C. 2024-L116
    
    
More information about the Iaude
mailing list